Wind_Speed
42 44 45 46 46 47 48 47 44 42 41 41 40 38 36 35 34 32 30 30 30 28 26 24 23 22 20 19 16 14 12 10 8 7 6 5 5 5 5 5 4 4 4 4 4 5 5 5 5 4 4 4 5 5 5 5 5 4 4 4 4 4 4
40 42 43 45 46 47 48 47 45 44 43 43 42 40 38 37 35 33 31 31 31 30 27 25 24 23 22 20 17 14 13 11 9 8 6 5 5 5 5 5 5 4 3 3 5 5 4 3 3 4 4 4 4 5 5 5 5 4 4 4 3 4 4
38 40 44 46 47 47 47 48 47 46 45 45 44 42 41 39 36 33 31 31 33 32 29 27 24 23 22 20 17 15 13 12 9 7 6 5 4 4 5 5 4 4 3 4 5 4 3 3 3 3 3 4 4 5 5 5 5 5 5 5 5 4 5
40 43 46 48 48 47 47 48 48 47 47 47 45 44 42 39 37 34 31 31 33 34 32 29 25 23 22 20 17 15 13 11 9 7 6 5 5 5 5 4 4 4 4 4 3 2 1 2 2 2 3 4 4 3 4 5 6 6 6 7 6 5 5
39 41 43 45 45 45 46 48 49 49 48 47 46 45 42 40 38 35 32 32 33 33 32 29 26 24 22 20 18 15 13 11 9 8 7 6 5 5 5 4 4 5 5 4 3 2 1 1 1 2 4 4 4 4 5 6 6 7 7 8 8 8 7
36 38 41 44 44 45 47 48 49 49 49 48 48 47 45 42 39 37 34 33 34 34 33 31 28 26 23 21 19 16 14 12 10 9 7 6 6 6 5 5 6 6 6 5 4 3 2 1 1 3 4 4 4 5 6 7 7 8 9 9 10 10 9
36 39 42 44 45 46 46 48 49 49 49 48 48 47 47 44 41 38 36 35 35 35 35 33 30 27 24 21 20 18 15 13 10 9 8 7 7 7 6 6 7 7 7 6 4 4 4 4 3 3 5 5 5 5 7 9 8 9 10 11 11 11 12
39 41 42 43 45 46 46 47 48 49 49 48 48 48 48 46 43 40 38 37 36 36 36 35 32 29 25 22 21 18 15 13 11 9 9 8 8 7 7 7 7 8 8 6 5 5 6 6 5 6 8 7 6 7 8 10 10 10 10 11 12 12 12
42 42 42 43 45 46 46 48 48 48 48 48 49 49 48 46 44 42 40 39 37 37 37 36 34 30 26 23 22 19 16 14 11 10 9 8 8 7 6 7 8 9 9 6 6 7 7 8 8 9 9 8 8 8 8 10 12 12 11 11 13 13 12
39 39 39 40 43 44 45 46 47 47 48 48 48 48 47 47 45 43 42 40 39 37 36 36 35 32 28 25 23 20 18 15 12 11 10 9 8 7 7 9 10 9 8 7 8 9 10 10 11 11 11 11 10 10 11 12 12 13 13 13 14 15 13
37 36 37 38 40 41 41 43 45 47 48 49 48 48 48 46 45 45 44 42 40 38 36 36 36 34 30 26 24 22 19 16 13 11 10 10 9 7 6 9 9 8 7 8 10 11 12 12 12 12 13 14 14 14 15 15 14 14 14 14 16 16 12
36 35 36 36 37 39 40 42 45 47 48 48 49 48 48 47 46 45 44 43 41 39 37 36 37 35 32 28 26 24 20 18 14 10 10 11 9 6 6 7 7 7 8 10 11 13 14 14 14 14 15 15 16 16 17 16 15 16 17 17 17 15 12
35 34 34 34 35 37 40 42 44 46 47 48 48 48 47 47 46 46 45 43 42 40 38 37 37 36 33 30 28 25 21 18 13 9 10 10 7 6 6 6 6 7 8 11 14 16 17 16 15 16 17 17 17 17 17 17 18 19 19 17 15 13 11
33 31 30 32 34 36 38 40 43 45 46 47 47 47 47 47 46 46 44 43 42 40 39 38 38 37 34 32 30 26 21 17 11 9 10 9 8 8 7 6 6 7 9 13 16 17 17 16 15 16 17 17 17 16 16 16 16 16 16 15 13 12 12
32 31 31 33 35 36 37 39 42 43 45 46 46 47 47 46 46 45 44 43 41 40 39 37 37 36 34 32 30 26 21 16 12 11 12 11 10 10 8 7 8 8 11 13 15 15 15 15 15 15 16 15 15 14 13 12 12 12 12 12 11 11 12
31 31 32 33 34 36 37 38 39 41 44 46 46 47 46 46 46 45 44 43 41 39 38 36 35 34 33 32 30 24 20 17 13 13 15 14 11 11 10 10 11 12 13 14 14 15 15 15 15 15 14 14 13 12 11 10 10 10 9 8 8 9 9
31 31 32 32 33 34 35 36 38 40 42 44 46 46 47 46 46 45 44 43 42 40 38 35 33 32 32 32 29 24 21 17 14 15 17 15 12 12 12 12 14 15 15 15 16 16 15 15 14 14 13 13 13 12 10 10 10 10 9 8 8 10 10
32 32 31 31 32 34 35 36 37 39 40 42 44 46 47 46 46 45 44 44 42 40 38 36 34 32 32 30 28 25 22 18 15 16 17 15 14 15 15 15 17 18 17 17 17 16 15 15 14 14 13 13 13 12 11 11 11 10 10 10 11 12 13
29 29 29 30 31 31 33 34 36 36 36 37 40 43 45 45 45 45 45 44 42 40 38 37 36 34 32 30 29 27 21 15 14 15 17 16 16 17 17 18 20 20 19 18 17 17 17 16 15 15 15 14 13 13 13 13 12 11 11 12 12 13 15
22 24 26 28 29 30 31 32 33 33 33 34 36 39 41 43 45 44 44 43 42 40 39 38 37 36 33 31 31 28 21 15 14 15 17 19 19 20 21 21 22 22 21 20 19 19 19 18 17 16 16 15 14 15 15 14 13 13 13 13 14 15 17
17 17 18 20 23 25 28 29 30 32 32 32 34 37 40 43 43 43 43 43 43 42 40 39 38 37 36 34 33 30 24 20 16 15 17 21 22 23 24 24 24 23 23 22 21 21 20 19 18 18 17 16 15 16 16 14 13 14 14 14 15 16 18
13 13 12 12 13 15 18 22 25 27 28 30 34 37 40 40 41 41 42 42 43 43 42 40 38 38 37 35 34 31 27 24 20 18 20 23 24 25 26 26 26 25 24 24 23 22 21 20 20 19 18 16 16 16 17 15 14 15 15 15 16 17 18
11 11 10 10 9 9 10 13 18 21 24 27 32 36 38 39 39 41 41 42 42 43 42 41 38 38 37 34 33 32 29 26 24 21 21 24 25 26 27 27 27 26 25 25 24 23 23 23 22 21 20 18 17 17 17 16 16 17 17 17 18 18 17
11 10 8 8 8 9 10 11 13 17 22 26 31 35 36 36 38 40 41 42 42 42 42 41 39 39 36 32 32 34 32 29 27 24 22 24 25 25 27 28 28 27 26 26 26 25 24 24 24 25 25 23 19 18 18 17 17 19 19 18 19 18 18
12 10 8 7 7 9 10 11 12 15 20 26 30 33 35 37 39 41 41 42 43 43 43 42 41 39 33 29 31 34 33 29 26 22 20 22 23 24 27 29 29 28 27 27 28 27 27 26 27 28 29 27 23 21 20 20 19 19 20 20 20 19 19
9 7 6 5 7 10 10 10 11 13 18 23 27 30 31 32 36 40 41 42 45 46 43 41 39 36 31 29 30 33 31 26 20 18 19 22 23 25 28 29 29 30 29 28 28 28 29 29 30 29 29 27 25 24 25 25 24 22 22 22 21 21 20
7 5 5 6 9 11 10 9 9 11 14 19 24 27 26 24 29 34 36 38 42 42 38 36 34 31 27 26 28 29 25 20 17 19 22 25 26 27 29 30 31 32 30 27 28 30 30 31 31 30 28 27 26 27 28 26 23 22 23 24 22 21 21
5 5 6 8 10 10 10 10 10 11 14 17 23 28 27 25 28 31 29 31 34 33 29 27 27 24 22 23 23 22 19 18 19 23 25 27 27 29 30 30 32 33 30 26 26 29 31 32 32 31 30 28 27 29 29 25 20 19 21 23 22 22 22
6 7 8 9 10 11 10 11 12 14 17 20 24 27 27 27 30 30 26 29 32 27 21 20 20 19 19 19 18 17 18 19 21 23 25 26 27 28 29 29 31 32 28 24 24 27 29 30 30 30 31 29 27 28 28 26 22 21 22 24 24 23 22
6 9 10 12 13 14 13 12 12 14 17 21 24 26 26 25 28 26 23 28 32 29 22 19 19 19 18 17 16 16 18 19 20 21 22 23 25 26 27 27 27 25 22 21 21 23 25 27 27 28 30 29 27 27 26 25 22 20 21 24 25 24 22
8 11 13 14 14 14 12 11 10 12 15 19 23 25 24 23 23 22 21 25 31 29 23 20 20 19 16 14 14 15 16 16 16 17 17 18 19 20 21 21 19 17 16 17 18 20 23 25 26 27 28 28 27 25 23 22 20 18 19 23 25 24 22
9 11 13 13 12 12 12 10 10 11 14 18 21 23 22 22 23 23 21 24 26 25 22 19 18 15 13 13 13 13 13 13 13 12 13 13 14 15 15 15 13 13 13 14 15 17 20 22 23 24 24 24 24 22 21 21 20 18 20 23 24 23 21
9 12 13 13 13 13 14 13 13 14 16 19 21 20 20 22 23 22 21 21 21 21 18 15 12 11 10 10 10 10 11 11 11 11 11 11 12 13 13 13 13 13 12 13 14 16 17 18 19 20 20 21 22 22 22 22 20 19 20 22 22 21 19
10 12 14 15 16 15 16 15 15 16 18 20 21 20 19 22 23 24 24 22 18 16 14 10 6 6 7 8 10 11 10 10 10 9 9 9 10 11 12 13 13 13 13 13 15 15 15 16 17 18 19 20 21 20 20 20 20 19 18 19 20 20 18
11 13 15 17 17 16 15 15 16 17 19 21 20 18 19 24 24 22 22 19 13 11 9 5 2 5 9 11 11 11 9 9 9 9 9 10 10 11 12 13 14 14 13 14 15 16 15 16 16 17 17 18 18 18 18 18 18 17 17 18 19 20 20
10 14 16 17 17 15 14 15 17 19 19 20 19 17 19 23 21 19 20 18 12 8 4 6 7 7 11 12 11 11 10 10 10 10 10 11 12 13 13 14 14 14 13 14 15 15 15 16 16 16 16 16 16 16 17 17 16 16 18 20 20 21 20
9 12 14 16 16 14 13 14 17 18 19 20 20 19 19 22 24 24 21 16 12 9 4 9 11 11 12 12 12 12 11 11 11 11 11 12 13 14 14 13 13 13 13 13 13 14 14 16 17 16 15 15 15 14 14 14 14 15 17 18 18 18 17
6 9 13 14 14 13 13 14 17 19 19 20 21 20 21 23 24 21 15 11 11 10 10 13 13 14 15 14 13 12 11 11 12 12 13 13 14 13 13 12 11 10 11 11 12 13 13 14 15 15 15 15 14 14 13 12 12 12 13 14 15 16 17
Wind_Direction
196 196 197 199 200 200 201 201 201 201 202 203 204 205 206 207 210 214 214 210 206 204 204 204 205 206 206 206 206 206 204 200 197 199 206 213 221 229 229 230 231 226 226 241 252 238 223 226 241 258 261 262 278 290 291 296 295 285 287 291 286 292 307
195 195 196 199 201 202 202 202 202 202 203 204 205 206 207 207 210 213 213 210 206 204 204 206 206 206 206 205 206 207 205 203 201 201 205 212 223 231 234 235 230 229 244 263 261 254 246 245 264 280 279 277 280 275 278 286 284 280 285 289 289 295 297
194 195 196 199 202 202 201 201 202 203 203 204 205 207 209 211 212 214 213 209 206 204 205 206 208 208 206 204 206 208 207 206 206 205 206 213 223 228 231 234 233 241 256 259 259 258 262 285 301 310 314 307 290 274 276 279 275 277 281 286 293 293 284
194 197 198 201 203 202 201 201 201 202 204 206 208 210 212 214 215 215 214 210 206 205 204 205 209 209 207 206 207 208 207 206 209 212 210 212 218 223 230 236 241 249 249 243 234 217 248 285 301 348 351 335 321 312 312 303 293 290 285 283 286 285 280
194 197 198 201 202 201 201 201 201 202 205 207 210 212 214 215 215 215 215 212 209 208 206 205 208 209 207 209 210 209 207 206 211 215 215 217 218 221 230 237 242 244 237 219 190 162 192 242 297 359 351 344 351 1 358 347 333 319 308 296 287 283 281
192 195 198 201 202 202 202 201 202 204 206 209 210 212 213 214 215 215 215 213 211 210 208 207 208 208 207 209 211 209 206 205 209 216 218 219 220 221 224 228 238 239 226 207 190 182 214 254 308 324 321 322 336 343 339 339 336 331 330 320 300 284 278
190 196 200 202 202 202 202 202 203 205 207 209 209 210 211 213 215 216 216 214 212 210 209 208 209 209 208 209 211 209 205 204 206 213 219 220 221 220 216 222 235 232 215 205 210 225 246 271 277 275 289 301 309 317 319 318 315 316 322 325 313 290 278
192 199 202 204 204 203 202 202 203 204 205 206 207 208 211 213 214 215 216 216 214 213 211 210 210 210 208 208 211 210 205 202 203 212 220 221 221 216 214 225 231 222 215 215 229 245 263 275 270 266 275 284 288 294 302 302 299 298 305 315 317 302 282
196 200 204 206 206 204 203 203 204 204 204 206 208 210 212 213 214 216 218 217 215 215 213 212 211 210 208 208 210 209 203 197 200 210 216 218 217 211 216 229 223 214 217 224 236 248 259 263 263 265 268 271 274 279 289 293 290 289 293 302 312 308 286
196 200 205 207 206 204 203 203 204 203 204 206 208 210 211 213 215 217 218 218 217 217 216 214 213 210 209 209 209 207 201 196 199 206 210 214 208 199 212 227 222 217 225 240 249 251 253 255 262 267 270 274 276 277 281 283 279 278 282 291 303 305 287
196 201 204 204 203 202 201 202 203 203 205 208 209 211 212 214 217 218 218 219 219 220 218 216 215 212 209 209 208 204 199 196 200 204 209 213 202 191 210 225 226 231 245 257 260 257 256 259 263 264 267 273 276 276 277 276 274 272 276 287 297 298 285
196 199 200 201 201 202 203 204 205 206 208 210 211 213 214 215 217 218 219 219 220 221 220 218 217 213 211 210 206 201 199 199 201 206 211 209 196 190 211 224 234 248 257 258 255 255 260 262 261 261 264 269 271 273 276 277 276 275 279 285 289 288 280
193 195 198 202 204 204 205 206 208 210 211 213 215 215 216 217 218 217 219 220 220 221 221 219 219 215 212 211 205 200 202 201 202 212 210 199 189 195 211 222 238 253 256 253 252 258 264 265 262 264 268 270 271 273 275 276 275 275 277 277 277 279 277
188 192 197 203 206 207 207 209 212 212 213 215 216 216 217 217 218 218 220 222 220 220 220 221 221 216 213 212 206 202 204 205 209 217 205 193 194 201 207 215 231 249 253 251 254 259 262 262 261 263 266 269 270 269 270 272 272 271 268 266 269 275 276
183 188 194 201 206 209 211 212 214 215 216 217 217 217 216 216 217 218 220 222 221 221 220 220 221 219 216 213 208 205 206 207 210 210 198 195 200 201 202 211 223 238 245 248 253 256 255 256 256 258 263 266 267 267 269 275 277 272 265 264 270 275 274
182 188 193 199 205 210 213 215 217 218 219 218 218 218 217 216 217 218 219 220 220 221 221 220 220 220 217 214 209 206 207 209 214 212 203 199 199 198 203 213 221 232 238 242 248 250 250 251 251 255 263 267 269 269 274 285 287 279 270 269 273 272 269
185 191 195 200 205 209 213 216 218 220 221 220 221 221 221 220 220 219 219 219 219 220 221 218 216 214 214 213 210 206 206 212 217 213 208 205 203 203 208 217 226 233 237 242 245 246 247 249 252 257 263 266 267 269 276 289 289 277 267 268 271 268 267
187 193 198 203 207 210 213 216 218 220 222 224 224 222 223 223 220 218 218 218 218 218 217 216 213 210 210 210 207 204 206 214 218 212 210 213 213 212 215 222 231 235 238 241 244 245 247 251 254 257 259 261 265 270 277 286 284 270 259 261 267 267 270
192 198 203 208 213 215 217 219 220 222 225 227 227 226 226 226 223 221 219 218 218 216 214 214 212 210 209 207 204 203 207 220 232 225 221 222 222 221 222 227 234 238 240 243 245 246 249 252 254 255 258 260 265 271 277 281 278 264 256 261 267 269 275
195 204 210 215 220 223 224 225 224 224 226 230 232 232 230 228 225 224 221 218 215 213 212 212 211 210 210 206 203 204 210 230 248 244 234 229 229 229 229 233 238 241 244 246 248 248 249 252 253 256 259 260 265 271 274 276 273 263 259 266 271 274 280
184 196 207 214 221 226 229 231 230 227 228 231 235 234 230 226 225 223 221 218 214 211 211 212 212 211 209 206 203 205 216 235 252 256 243 233 233 237 237 238 241 244 247 249 250 251 252 254 256 258 260 261 265 270 270 270 270 266 267 272 272 276 283
194 198 207 215 222 225 227 232 235 235 235 235 235 233 229 227 226 223 221 218 215 213 212 212 212 210 207 205 204 209 223 238 252 262 250 238 238 242 243 245 246 248 250 251 253 254 255 256 258 258 259 260 262 264 265 267 269 269 271 272 271 276 283
216 206 208 213 221 229 232 238 240 240 243 242 238 234 232 230 228 224 220 216 214 213 211 209 209 207 204 206 212 218 228 239 254 265 254 240 241 246 250 252 252 252 253 256 259 261 261 264 267 267 265 263 260 261 263 267 270 271 273 271 269 274 281
208 195 191 199 219 237 241 247 249 245 245 244 239 235 232 230 228 223 216 210 208 206 204 203 204 204 206 217 227 229 232 243 257 263 253 244 247 253 256 257 257 257 259 261 263 264 265 268 272 273 269 265 263 263 266 269 270 271 271 268 267 272 278
183 184 188 199 225 242 244 252 257 250 245 243 241 238 236 233 228 220 210 204 202 198 197 202 205 208 218 236 239 234 238 250 258 258 252 253 256 258 260 262 263 263 263 263 262 262 263 264 265 268 270 270 268 265 266 270 269 268 267 264 265 272 278
192 204 212 220 231 239 244 253 261 257 247 241 239 235 230 225 217 208 203 201 199 196 198 207 213 219 234 246 239 236 244 253 254 254 257 259 261 264 265 267 268 266 264 264 264 262 261 260 260 265 272 275 272 266 265 267 266 264 264 262 264 272 279
219 231 244 244 234 234 243 255 264 257 241 234 230 222 215 209 202 199 199 200 199 201 208 218 224 230 239 241 236 239 248 253 254 258 260 261 265 268 268 268 269 267 264 265 267 265 263 262 263 266 269 272 270 266 265 266 265 264 263 261 263 273 282
214 213 216 220 225 236 250 259 256 240 231 233 230 223 220 217 206 203 208 212 211 215 221 225 229 232 233 233 236 243 249 254 258 260 260 263 267 268 267 270 271 266 264 268 273 271 270 268 264 262 263 266 269 268 266 264 264 263 262 263 268 276 282
203 205 207 215 230 243 250 249 240 226 222 225 222 220 224 220 205 203 219 229 226 225 225 222 222 225 227 231 236 243 249 254 259 260 263 267 269 268 269 271 269 265 266 274 277 274 272 269 263 260 263 267 270 271 268 264 263 262 261 266 272 276 278
215 223 230 236 237 237 239 237 228 220 220 221 219 219 223 219 207 205 218 228 225 222 220 218 219 222 225 231 238 245 251 254 256 260 265 269 271 271 272 272 271 270 273 278 278 275 272 267 263 265 271 272 271 271 271 269 268 266 262 265 271 274 275
234 233 234 232 225 227 237 237 228 225 223 220 220 221 220 215 206 199 208 225 229 224 217 214 217 218 217 221 228 235 239 242 246 253 260 266 268 271 272 274 277 279 280 280 279 276 271 268 267 270 275 276 273 274 276 275 272 269 264 265 269 272 273
238 232 232 232 230 234 239 235 230 230 221 214 218 220 214 206 197 191 202 221 222 212 206 205 205 202 199 202 210 217 221 227 235 242 250 257 261 264 269 275 278 279 281 284 283 277 271 269 270 271 273 274 275 277 280 278 274 269 264 264 267 270 271
254 241 235 236 240 241 239 235 228 221 215 212 213 212 206 202 195 189 195 202 193 185 191 197 192 192 195 198 206 213 217 225 232 236 242 251 255 259 265 269 272 274 278 281 282 279 275 274 274 274 274 274 276 279 280 279 278 275 268 264 266 268 268
268 254 244 241 240 237 235 232 223 217 215 210 206 206 205 198 187 178 182 187 177 167 175 184 191 216 225 220 221 224 224 230 236 238 247 258 263 266 268 270 273 279 281 279 276 275 274 274 276 277 277 276 277 279 279 280 284 284 275 269 267 267 271
274 261 247 239 234 228 226 227 222 219 214 203 197 196 189 182 176 170 170 172 167 163 176 191 228 236 229 227 228 230 237 247 250 253 264 274 276 276 277 278 280 282 282 277 273 273 275 277 278 279 280 282 283 283 282 284 289 289 281 273 270 273 280
276 260 244 233 227 224 225 226 222 218 210 197 189 180 170 170 172 167 162 163 164 168 214 294 298 259 237 233 233 239 249 255 255 261 272 279 278 276 277 278 280 281 277 273 271 272 276 279 281 283 285 287 288 286 285 287 289 283 274 268 269 274 278
282 262 246 237 233 230 226 220 215 214 208 196 186 174 163 162 165 165 168 176 182 183 240 299 290 258 241 237 237 243 249 251 253 262 270 272 271 270 272 275 275 274 270 267 268 272 275 278 281 283 285 285 285 283 284 285 284 276 267 262 262 265 267
280 265 252 247 243 237 229 218 211 209 203 192 181 171 164 163 169 174 184 203 217 230 267 281 263 238 231 232 235 240 244 247 254 260 264 266 267 269 272 274 273 268 266 267 271 276 280 283 284 284 282 282 283 282 282 280 276 270 263 259 258 260 262
Height
1489 1491 1494 1496 1498 1499 1501 1503 1506 1509 1512 1514 1516 1519 1522 1525 1527 1530 1532 1534 1536 1538 1540 1541 1542 1543 1544 1546 1547 1548 1548 1548 1549 1549 1549 1550 1550 1551 1551 1551 1550 1550 1550 1550 1550 1551 1551 1551 1551 1552 1551 1551 1551 1550 1550 1549 1549 1549 1549 1549 1548 1548 1547
1487 1490 1492 1494 1495 1496 1498 1501 1504 1506 1509 1511 1514 1516 1519 1521 1523 1526 1529 1531 1533 1535 1537 1538 1540 1541 1542 1544 1545 1546 1547 1547 1547 1547 1548 1548 1549 1549 1549 1550 1550 1549 1549 1549 1549 1549 1550 1550 1550 1551 1550 1550 1550 1549 1548 1548 1547 1547 1547 1547 1547 1546 1546
1485 1488 1489 1491 1491 1493 1496 1499 1501 1503 1506 1508 1511 1513 1515 1517 1519 1522 1525 1528 1530 1533 1535 1536 1538 1539 1541 1542 1543 1544 1545 1546 1546 1546 1546 1546 1547 1547 1548 1549 1549 1548 1548 1548 1548 1548 1548 1549 1549 1550 1549 1549 1548 1548 1547 1547 1546 1546 1546 1545 1545 1545 1544
1482 1483 1485 1487 1488 1491 1493 1495 1498 1501 1503 1505 1507 1509 1511 1513 1516 1519 1522 1524 1527 1529 1531 1533 1535 1537 1538 1539 1540 1542 1542 1543 1544 1545 1545 1545 1545 1546 1546 1547 1547 1547 1547 1547 1547 1547 1547 1548 1548 1548 1548 1548 1547 1546 1546 1546 1545 1545 1544 1544 1543 1543 1543
1479 1481 1484 1486 1487 1490 1491 1493 1495 1497 1500 1502 1504 1506 1508 1511 1514 1516 1519 1521 1524 1526 1528 1531 1533 1534 1536 1536 1537 1539 1540 1541 1542 1543 1543 1543 1543 1543 1544 1545 1545 1546 1546 1546 1546 1546 1546 1547 1547 1547 1547 1546 1546 1545 1545 1544 1544 1544 1543 1542 1542 1541 1541
1477 1480 1482 1483 1485 1487 1488 1490 1493 1494 1497 1499 1501 1504 1506 1508 1511 1513 1516 1518 1520 1523 1526 1528 1530 1531 1532 1534 1535 1537 1538 1539 1540 1541 1541 1541 1541 1541 1542 1543 1544 1544 1545 1545 1545 1545 1545 1546 1546 1546 1546 1545 1545 1544 1544 1543 1543 1543 1542 1541 1540 1540 1539
1475 1477 1478 1480 1482 1484 1486 1488 1491 1493 1495 1497 1499 1502 1503 1506 1508 1510 1512 1515 1517 1520 1522 1524 1527 1528 1530 1531 1533 1535 1536 1537 1538 1539 1539 1539 1539 1540 1540 1541 1542 1543 1544 1543 1544 1544 1544 1545 1545 1545 1544 1544 1543 1543 1543 1542 1542 1541 1541 1540 1539 1538 1537
1472 1474 1475 1477 1479 1481 1484 1486 1488 1491 1493 1496 1498 1499 1501 1503 1505 1507 1509 1512 1514 1516 1518 1521 1523 1525 1527 1529 1530 1532 1534 1535 1536 1537 1538 1538 1538 1538 1539 1539 1540 1541 1542 1542 1542 1543 1543 1543 1543 1543 1543 1542 1542 1542 1541 1541 1540 1540 1539 1538 1537 1536 1535
1469 1471 1473 1475 1477 1478 1481 1483 1486 1489 1491 1493 1495 1496 1498 1500 1502 1504 1506 1509 1511 1513 1515 1518 1521 1523 1525 1527 1528 1530 1532 1533 1534 1535 1536 1536 1536 1536 1537 1538 1539 1540 1540 1541 1541 1541 1541 1541 1541 1541 1541 1541 1540 1540 1539 1539 1538 1538 1537 1536 1535 1535 1534
1466 1469 1471 1473 1475 1476 1479 1482 1484 1487 1488 1490 1492 1494 1496 1497 1499 1501 1503 1506 1508 1510 1513 1515 1518 1521 1523 1524 1526 1528 1530 1531 1532 1533 1533 1534 1534 1533 1535 1537 1538 1538 1539 1539 1539 1539 1540 1540 1540 1540 1539 1539 1538 1538 1537 1537 1536 1536 1535 1534 1534 1533 1532
1465 1468 1470 1472 1474 1476 1478 1480 1482 1484 1486 1487 1489 1491 1493 1494 1497 1498 1500 1503 1505 1507 1510 1513 1515 1518 1520 1522 1524 1526 1528 1529 1529 1530 1530 1531 1531 1531 1533 1535 1536 1536 1537 1537 1537 1537 1538 1538 1538 1538 1537 1537 1536 1536 1535 1535 1534 1533 1533 1532 1532 1531 1530
1463 1465 1468 1470 1472 1474 1476 1478 1480 1481 1483 1485 1486 1487 1490 1491 1493 1495 1497 1500 1502 1504 1507 1510 1512 1515 1518 1520 1521 1523 1525 1526 1526 1527 1528 1529 1530 1530 1531 1533 1534 1534 1535 1535 1535 1535 1535 1536 1536 1535 1535 1534 1534 1533 1533 1532 1532 1531 1530 1530 1530 1529 1529
1460 1463 1466 1468 1469 1472 1473 1475 1477 1478 1480 1482 1483 1484 1486 1488 1490 1492 1494 1497 1499 1502 1504 1507 1509 1512 1515 1517 1518 1520 1522 1523 1524 1525 1526 1527 1528 1529 1530 1531 1532 1532 1532 1532 1533 1533 1533 1533 1533 1533 1532 1532 1531 1531 1531 1530 1530 1529 1529 1528 1528 1527 1527
1458 1461 1464 1466 1467 1469 1470 1472 1473 1475 1477 1479 1480 1482 1483 1485 1487 1489 1491 1494 1496 1499 1501 1504 1506 1509 1512 1514 1515 1517 1519 1521 1523 1523 1524 1526 1526 1527 1528 1529 1530 1530 1530 1530 1531 1532 1532 1532 1531 1531 1530 1530 1529 1529 1529 1528 1528 1527 1527 1526 1526 1525 1525
1456 1458 1460 1462 1464 1465 1466 1468 1469 1471 1473 1475 1477 1479 1480 1482 1485 1486 1489 1491 1494 1496 1499 1501 1504 1506 1509 1511 1513 1515 1518 1519 1521 1521 1522 1524 1524 1525 1526 1526 1527 1528 1528 1529 1529 1530 1530 1529 1529 1528 1528 1528 1527 1527 1526 1526 1526 1525 1525 1525 1524 1524 1523
1453 1455 1457 1459 1461 1462 1463 1464 1465 1467 1469 1471 1473 1475 1477 1479 1481 1483 1485 1488 1491 1493 1495 1498 1501 1504 1506 1508 1511 1514 1516 1517 1518 1519 1520 1521 1522 1523 1523 1524 1525 1526 1526 1527 1527 1527 1527 1527 1527 1526 1526 1525 1525 1525 1524 1524 1524 1523 1523 1523 1522 1522 1521
1451 1454 1456 1457 1459 1460 1461 1462 1463 1464 1466 1467 1469 1471 1473 1475 1477 1479 1481 1484 1487 1489 1491 1494 1497 1500 1503 1505 1508 1511 1512 1514 1516 1517 1518 1519 1520 1521 1521 1522 1523 1523 1524 1524 1524 1524 1524 1524 1524 1523 1523 1523 1522 1522 1522 1522 1522 1521 1521 1521 1521 1520 1519
1450 1452 1454 1456 1457 1458 1458 1459 1460 1461 1462 1464 1466 1467 1469 1471 1473 1476 1478 1480 1483 1486 1488 1491 1494 1497 1500 1502 1505 1508 1510 1512 1512 1513 1515 1516 1518 1518 1519 1520 1521 1521 1521 1521 1521 1521 1521 1521 1521 1521 1520 1520 1520 1519 1519 1519 1519 1519 1519 1519 1519 1518 1518
1450 1452 1453 1455 1456 1456 1457 1457 1457 1459 1460 1461 1463 1464 1466 1467 1469 1471 1474 1476 1480 1482 1485 1488 1490 1494 1497 1500 1503 1505 1507 1509 1509 1511 1513 1514 1515 1516 1517 1518 1518 1518 1518 1518 1518 1519 1519 1519 1519 1518 1518 1518 1517 1517 1516 1516 1516 1516 1516 1516 1516 1516 1515
1451 1452 1453 1454 1455 1455 1456 1455 1456 1457 1458 1459 1461 1461 1463 1465 1466 1469 1471 1474 1477 1479 1482 1485 1488 1491 1494 1497 1500 1502 1504 1506 1507 1509 1511 1512 1513 1514 1515 1516 1516 1516 1516 1516 1517 1517 1516 1516 1516 1516 1516 1516 1515 1515 1514 1514 1514 1513 1513 1513 1513 1513 1513
1451 1452 1452 1453 1454 1454 1455 1455 1455 1456 1457 1458 1459 1459 1461 1463 1464 1467 1470 1472 1475 1477 1480 1483 1486 1488 1492 1494 1497 1500 1503 1504 1505 1507 1509 1510 1511 1512 1513 1513 1513 1513 1514 1514 1515 1515 1514 1514 1514 1514 1514 1514 1513 1513 1512 1512 1512 1511 1511 1511 1511 1511 1510
1449 1450 1451 1451 1452 1453 1453 1454 1454 1454 1456 1456 1457 1457 1458 1460 1462 1465 1467 1470 1472 1475 1478 1482 1485 1487 1490 1493 1496 1499 1501 1502 1503 1505 1506 1507 1508 1509 1510 1510 1511 1511 1512 1512 1512 1512 1512 1512 1512 1511 1512 1511 1511 1511 1510 1510 1510 1509 1509 1509 1509 1508 1508
1447 1448 1449 1449 1450 1451 1451 1452 1453 1453 1454 1454 1455 1455 1456 1458 1460 1462 1464 1467 1469 1472 1476 1479 1483 1487 1490 1493 1495 1497 1499 1501 1502 1503 1504 1505 1505 1506 1507 1507 1508 1510 1510 1511 1511 1511 1511 1510 1510 1510 1510 1510 1509 1509 1508 1507 1507 1507 1506 1506 1506 1506 1505
1446 1446 1447 1447 1448 1449 1450 1451 1451 1452 1453 1453 1453 1454 1454 1456 1458 1459 1461 1463 1466 1470 1473 1477 1481 1484 1487 1490 1493 1495 1497 1499 1500 1501 1501 1502 1502 1503 1504 1505 1506 1507 1508 1508 1508 1508 1508 1508 1508 1509 1508 1507 1507 1507 1506 1505 1505 1504 1504 1503 1503 1503 1502
1444 1444 1445 1445 1446 1447 1448 1449 1450 1450 1450 1451 1452 1452 1453 1454 1454 1456 1459 1462 1465 1469 1473 1476 1479 1482 1485 1488 1490 1493 1495 1497 1498 1499 1499 1499 1499 1500 1500 1501 1502 1503 1504 1504 1504 1505 1505 1505 1504 1504 1504 1504 1504 1504 1504 1503 1502 1502 1502 1501 1501 1500 1499
1442 1442 1442 1443 1444 1446 1447 1448 1448 1448 1449 1450 1451 1453 1454 1455 1456 1457 1460 1463 1465 1467 1471 1475 1478 1481 1484 1486 1487 1490 1493 1495 1496 1496 1496 1496 1496 1497 1497 1497 1498 1499 1500 1501 1501 1501 1501 1500 1500 1500 1500 1501 1501 1500 1500 1500 1500 1500 1499 1498 1498 1497 1496
1440 1440 1441 1442 1444 1445 1446 1446 1447 1447 1448 1449 1450 1452 1454 1459 1464 1466 1468 1470 1469 1468 1471 1476 1478 1481 1483 1484 1486 1489 1491 1492 1493 1493 1493 1493 1494 1494 1494 1494 1495 1495 1496 1498 1498 1497 1497 1496 1496 1497 1497 1497 1497 1495 1495 1496 1497 1497 1497 1496 1495 1494 1493
1440 1440 1440 1442 1443 1444 1445 1445 1445 1446 1447 1447 1448 1449 1450 1455 1462 1467 1472 1476 1475 1472 1473 1477 1479 1480 1482 1483 1485 1487 1489 1490 1490 1490 1490 1491 1491 1492 1491 1492 1492 1492 1493 1494 1494 1493 1493 1493 1493 1494 1493 1493 1493 1491 1490 1492 1493 1494 1494 1493 1491 1491 1490
1439 1440 1441 1442 1443 1444 1444 1444 1444 1445 1446 1447 1448 1449 1449 1451 1456 1461 1468 1473 1474 1474 1476 1477 1478 1480 1481 1482 1484 1485 1486 1487 1487 1487 1488 1488 1489 1489 1489 1489 1489 1488 1489 1491 1490 1490 1490 1489 1490 1490 1490 1489 1489 1488 1487 1488 1489 1489 1489 1489 1488 1487 1487
1439 1440 1440 1441 1442 1442 1442 1444 1444 1445 1447 1448 1449 1449 1450 1452 1455 1459 1465 1469 1470 1474 1477 1477 1477 1479 1479 1480 1482 1483 1483 1484 1484 1485 1485 1486 1486 1486 1486 1486 1486 1486 1487 1487 1486 1486 1486 1486 1487 1487 1486 1485 1485 1485 1485 1485 1485 1485 1485 1485 1485 1484 1484
1439 1440 1440 1441 1442 1442 1443 1444 1444 1445 1446 1447 1448 1449 1450 1453 1456 1458 1463 1468 1470 1473 1475 1475 1476 1477 1477 1478 1480 1480 1481 1481 1481 1482 1483 1483 1484 1483 1483 1483 1483 1483 1483 1482 1482 1482 1482 1483 1484 1483 1482 1482 1481 1482 1482 1482 1482 1482 1482 1482 1482 1481 1480
1440 1441 1441 1442 1442 1443 1443 1444 1444 1445 1445 1446 1447 1447 1449 1453 1455 1456 1460 1466 1469 1470 1472 1473 1475 1475 1475 1476 1477 1477 1478 1478 1478 1479 1480 1480 1480 1480 1480 1480 1480 1480 1480 1479 1479 1479 1480 1480 1481 1480 1479 1478 1478 1478 1479 1479 1478 1478 1478 1478 1478 1478 1477
1441 1441 1441 1442 1442 1443 1443 1443 1444 1444 1444 1445 1446 1447 1448 1452 1453 1454 1457 1464 1467 1468 1470 1474 1476 1475 1474 1473 1473 1474 1475 1475 1475 1476 1476 1477 1477 1477 1477 1477 1477 1477 1477 1477 1478 1477 1477 1478 1477 1477 1476 1475 1475 1475 1475 1475 1474 1474 1474 1475 1475 1474 1474
1441 1441 1441 1442 1442 1442 1443 1443 1444 1444 1444 1444 1445 1446 1448 1451 1453 1453 1456 1462 1467 1468 1470 1473 1474 1473 1472 1471 1471 1471 1472 1472 1473 1473 1473 1473 1474 1474 1474 1474 1474 1475 1475 1476 1476 1475 1475 1475 1474 1473 1473 1472 1472 1472 1471 1471 1471 1471 1471 1472 1472 1471 1471
1441 1441 1441 1441 1442 1442 1442 1443 1444 1444 1444 1445 1446 1447 1447 1450 1454 1454 1456 1462 1467 1468 1469 1470 1469 1469 1470 1470 1470 1470 1470 1470 1470 1470 1470 1470 1471 1471 1471 1471 1472 1472 1473 1473 1473 1472 1472 1471 1471 1470 1470 1469 1469 1469 1468 1468 1468 1468 1469 1470 1470 1469 1468
1441 1441 1441 1441 1442 1442 1442 1443 1444 1444 1445 1445 1446 1448 1450 1452 1454 1455 1457 1462 1465 1465 1465 1466 1466 1467 1468 1468 1467 1468 1468 1468 1468 1468 1468 1468 1468 1469 1469 1469 1470 1470 1470 1470 1470 1469 1469 1469 1468 1467 1467 1466 1466 1466 1465 1465 1466 1466 1467 1467 1467 1467 1467
1441 1441 1441 1442 1442 1442 1442 1443 1443 1444 1445 1445 1446 1449 1451 1452 1454 1455 1457 1460 1460 1460 1463 1464 1465 1466 1466 1466 1466 1466 1466 1466 1466 1466 1466 1467 1466 1467 1467 1467 1468 1468 1468 1468 1468 1467 1467 1466 1465 1465 1464 1464 1464 1463 1463 1464 1464 1464 1464 1464 1465 1465 1465
1441 1441 1442 1442 1442 1442 1442 1442 1443 1444 1445 1446 1447 1449 1450 1452 1455 1456 1457 1458 1459 1460 1462 1464 1465 1465 1465 1465 1465 1464 1464 1464 1464 1464 1464 1464 1464 1465 1465 1465 1465 1466 1466 1466 1465 1464 1464 1463 1463 1462 1462 1461 1461 1461 1461 1461 1462 1462 1462 1462 1462 1463 1463